TimeCST,TemperatureF,Dew PointF,Humidity,Sea Level PressureIn,VisibilityMPH,Wind Direction,Wind SpeedMPH,Gust SpeedMPH,PrecipitationIn,Events,Conditions,WindDirDegrees,DateUTC
12:14 AM,-13.0,-16.6,84,30.29,10.0,West,10.4,-,N/A,,Clear,270,2014-02-26 06:14:00
12:33 AM,-13.0,-16.6,84,30.28,10.0,West,10.4,-,N/A,,Clear,270,2014-02-26 06:33:00
12:53 AM,-13.0,-18.4,77,30.27,10.0,West,9.2,-,N/A,,Clear,260,2014-02-26 06:53:00
1:13 AM,-14.8,-18.4,84,30.27,10.0,WSW,10.4,-,N/A,,Clear,250,2014-02-26 07:13:00
1:33 AM,-13.0,-16.6,84,30.25,10.0,WSW,8.1,-,N/A,,Clear,250,2014-02-26 07:33:00
1:53 AM,-13.0,-16.6,84,30.25,10.0,WSW,10.4,-,N/A,,Clear,250,2014-02-26 07:53:00
2:13 AM,-11.2,-16.6,77,30.22,10.0,WSW,11.5,-,N/A,,Clear,250,2014-02-26 08:13:00
2:34 AM,-11.2,-16.6,77,30.21,10.0,WSW,12.7,-,N/A,,Clear,250,2014-02-26 08:34:00
2:53 AM,-11.2,-16.6,77,30.19,10.0,WSW,13.8,-,N/A,,Clear,250,2014-02-26 08:53:00
3:13 AM,-11.2,-16.6,77,30.17,10.0,WSW,12.7,-,N/A,,Clear,250,2014-02-26 09:13:00
3:34 AM,-9.4,-14.8,77,30.16,10.0,WSW,15.0,-,N/A,,Scattered Clouds,250,2014-02-26 09:34:00
3:53 AM,-9.4,-14.8,77,30.13,10.0,WSW,12.7,-,N/A,,Scattered Clouds,250,2014-02-26 09:53:00
4:13 AM,-9.4,-14.8,77,30.12,10.0,WSW,12.7,-,N/A,,Clear,250,2014-02-26 10:13:00
4:33 AM,-9.4,-14.8,77,30.10,10.0,WSW,13.8,-,N/A,,Clear,240,2014-02-26 10:33:00
4:53 AM,-9.4,-14.8,77,30.08,10.0,WSW,13.8,-,N/A,,Clear,240,2014-02-26 10:53:00
5:14 AM,-9.4,-14.8,77,30.07,10.0,WSW,13.8,-,N/A,,Clear,240,2014-02-26 11:14:00
5:33 AM,-9.4,-14.8,77,30.05,10.0,WSW,15.0,-,N/A,,Clear,240,2014-02-26 11:33:00
5:53 AM,-11.2,-14.8,84,30.04,10.0,WSW,12.7,-,N/A,,Clear,250,2014-02-26 11:53:00
6:13 AM,-11.2,-14.8,84,30.02,10.0,WSW,11.5,-,N/A,,Clear,240,2014-02-26 12:13:00
6:33 AM,-11.2,-14.8,84,30.00,10.0,WSW,13.8,-,N/A,,Clear,240,2014-02-26 12:33:00
6:54 AM,-11.2,-14.8,84,29.97,10.0,WSW,15.0,-,N/A,,Clear,240,2014-02-26 12:54:00
7:13 AM,-9.4,-14.8,77,29.95,10.0,WSW,15.0,-,N/A,,Clear,240,2014-02-26 13:13:00
7:33 AM,-7.6,-13.0,77,29.93,10.0,WSW,18.4,-,N/A,,Clear,240,2014-02-26 13:33:00
7:54 AM,-7.6,-11.2,84,29.91,10.0,SW,12.7,-,N/A,,Clear,230,2014-02-26 13:54:00
8:13 AM,-5.8,-11.2,77,29.90,10.0,SW,18.4,-,N/A,,Clear,230,2014-02-26 14:13:00
8:34 AM,-2.2,-9.4,71,29.88,10.0,SW,19.6,-,N/A,,Clear,230,2014-02-26 14:34:00
8:53 AM,-0.4,-7.6,72,29.86,10.0,WSW,23.0,27.6,N/A,,Clear,240,2014-02-26 14:53:00
9:13 AM,1.4,-5.8,72,29.84,7.0,WSW,27.6,31.1,N/A,,Clear,240,2014-02-26 15:13:00
9:34 AM,1.4,-5.8,72,29.82,10.0,WSW,23.0,-,N/A,,Clear,240,2014-02-26 15:34:00
9:53 AM,3.2,-4.0,72,29.79,10.0,SW,26.5,29.9,N/A,,Scattered Clouds,230,2014-02-26 15:53:00
10:13 AM,5.0,-2.2,72,29.77,10.0,SW,25.3,32.2,N/A,,Scattered Clouds,230,2014-02-26 16:13:00
10:34 AM,6.8,-0.4,72,29.75,10.0,WSW,25.3,31.1,N/A,,Scattered Clouds,240,2014-02-26 16:34:00
10:53 AM,8.6,1.4,73,29.74,10.0,WSW,20.7,29.9,N/A,,Scattered Clouds,240,2014-02-26 16:53:00
11:13 AM,12.2,1.4,62,29.73,10.0,WSW,21.9,28.8,N/A,,Clear,250,2014-02-26 17:13:00
11:34 AM,12.2,1.4,62,29.70,10.0,WSW,25.3,29.9,N/A,,Scattered Clouds,250,2014-02-26 17:34:00
11:53 AM,14.0,1.4,57,29.69,10.0,WSW,26.5,32.2,N/A,,Clear,250,2014-02-26 17:53:00
12:14 PM,14.0,1.4,57,29.66,10.0,WSW,25.3,34.5,N/A,,Clear,250,2014-02-26 18:14:00
12:33 PM,15.8,3.2,58,29.66,10.0,West,25.3,34.5,N/A,,Clear,260,2014-02-26 18:33:00
12:53 PM,15.8,3.2,58,29.66,5.0,West,23.0,34.5,N/A,,Haze,270,2014-02-26 18:53:00
1:14 PM,17.6,3.2,53,29.65,5.0,West,28.8,36.8,N/A,,Haze,280,2014-02-26 19:14:00
1:33 PM,15.8,6.8,68,29.64,3.0,WNW,29.9,36.8,N/A,,Haze,290,2014-02-26 19:33:00
1:53 PM,17.6,6.8,63,29.63,2.0,West,35.7,42.6,N/A,,Haze,280,2014-02-26 19:53:00
2:14 PM,15.8,8.6,73,29.63,1.5,WNW,35.7,42.6,N/A,,Haze,290,2014-02-26 20:14:00
2:33 PM,15.8,6.8,68,29.63,2.5,WNW,33.4,41.4,N/A,,Haze,300,2014-02-26 20:33:00
2:54 PM,14.0,6.8,73,29.64,4.0,WNW,29.9,40.3,N/A,,Haze,300,2014-02-26 20:54:00
3:13 PM,14.0,6.8,73,29.65,5.0,WNW,29.9,33.4,N/A,,Haze,300,2014-02-26 21:13:00
3:33 PM,14.0,5.0,67,29.66,7.0,WNW,31.1,42.6,N/A,,Scattered Clouds,300,2014-02-26 21:33:00
3:54 PM,12.2,6.8,79,29.67,4.0,WNW,27.6,35.7,N/A,,Haze,300,2014-02-26 21:54:00
4:13 PM,10.4,5.0,79,29.69,4.0,NW,27.6,32.2,N/A,,Haze,310,2014-02-26 22:13:00
4:33 PM,10.4,3.2,73,29.70,2.0,NW,24.2,34.5,N/A,,Haze,310,2014-02-26 22:33:00
4:54 PM,10.4,1.4,67,29.71,3.0,NW,26.5,33.4,N/A,,Haze,320,2014-02-26 22:54:00
5:13 PM,8.6,1.4,73,29.72,7.0,NW,24.2,29.9,N/A,,Clear,310,2014-02-26 23:13:00
5:33 PM,8.6,1.4,73,29.74,7.0,NW,19.6,31.1,N/A,,Clear,320,2014-02-26 23:33:00
5:54 PM,8.6,-0.4,67,29.74,5.0,NW,25.3,36.8,N/A,,Haze,310,2014-02-26 23:54:00
6:13 PM,6.8,-0.4,72,29.76,10.0,NW,21.9,29.9,N/A,,Scattered Clouds,310,2014-02-27 00:13:00
6:34 PM,6.8,1.4,79,29.78,0.5,NNW,27.6,38.0,N/A,Snow,Snow,330,2014-02-27 00:34:00
6:53 PM,3.2,-2.2,78,29.80,2.0,NW,25.3,36.8,N/A,,Haze,320,2014-02-27 00:53:00
7:13 PM,1.4,-5.8,72,29.81,3.0,NW,24.2,33.4,N/A,,Haze,320,2014-02-27 01:13:00
7:34 PM,1.4,-9.4,61,29.83,4.0,NW,24.2,34.5,N/A,,Haze,320,2014-02-27 01:34:00
7:53 PM,-0.4,-11.2,60,29.84,10.0,NNW,24.2,31.1,N/A,,Clear,330,2014-02-27 01:53:00
8:13 PM,-0.4,-11.2,60,29.85,10.0,NNW,19.6,-,N/A,,Clear,330,2014-02-27 02:13:00
8:34 PM,-2.2,-13.0,60,29.86,5.0,NW,27.6,34.5,N/A,,Haze,320,2014-02-27 02:34:00
8:53 PM,-2.2,-14.8,55,29.87,7.0,NW,25.3,32.2,N/A,,Clear,320,2014-02-27 02:53:00
9:14 PM,-4.0,-14.8,60,29.89,10.0,NW,24.2,29.9,N/A,,Clear,320,2014-02-27 03:14:00
9:33 PM,-4.0,-16.6,55,29.90,10.0,NW,20.7,29.9,N/A,,Clear,320,2014-02-27 03:33:00
9:53 PM,-5.8,-14.8,65,29.91,10.0,NNW,20.7,29.9,N/A,,Clear,330,2014-02-27 03:53:00
10:14 PM,-5.8,-14.8,65,29.93,10.0,NNW,24.2,29.9,N/A,,Clear,330,2014-02-27 04:14:00
10:33 PM,-7.6,-16.6,65,29.94,10.0,NNW,21.9,27.6,N/A,,Clear,330,2014-02-27 04:33:00
10:53 PM,-7.6,-18.4,59,29.95,10.0,NNW,24.2,29.9,N/A,,Clear,330,2014-02-27 04:53:00
11:14 PM,-7.6,-18.4,59,29.96,10.0,NNW,19.6,28.8,N/A,,Clear,330,2014-02-27 05:14:00
11:33 PM,-9.4,-18.4,65,29.96,10.0,NNW,19.6,28.8,N/A,,Clear,330,2014-02-27 05:33:00
11:53 PM,-9.4,-20.2,59,29.97,10.0,NNW,18.4,27.6,N/A,,Clear,330,2014-02-27 05:53:00